Weather in Sundance

United States     44°24′22″N   104°22′28″W
В апреле 2022 года жителям России запретили посещать сайт meteo.paraplan.net по решению Генеральной прокуратуры. Аудитория сайта уменьшилась в 10 раз. Владельцы сайта не видят смысла в поддержке погодного сервера в таких условиях. Сайт будет закрыт в октябре.
temp.,
°C
wind,
m/s
gust,
m/s
humid.,
%
clouds,
%
prec.,
mm/h
press.,
hPa
HPBL,
m
4 october, tue
tue400:00+8wsw228964 0.4 102129
03:00+7wsw228977 0.0 102134
06:00+7wsw229232 0.0 102137
09:00+10wsw127764 0.0 1020274
12:00+12nw2463100 0.3 1020753
15:00+15nw354583 0.0 10181867
18:00+14nw234992 0.0 101898
21:00+10w11650 0.0 102110
5 october, wed
wed500:00+9sw22708 0.0 102216
03:00+8sw22740 0.0 102222
06:00+8sw33770 0.0 102230
09:00+13sw23574 0.0 1022216
12:00+17nw22385 0.0 10211297
15:00+20n323037 0.0 10191661
18:00+16ne224190 0.0 102016
21:00+12s1150100 0.0 102212
6 october, thu
thu600:00+11ssw22549 0.0 102313
03:00+10sse115886 0.0 102411
06:00+8ne227196 0.0 102625
09:00+7ne3379100 0.0 1028284
12:00+12ne436076 0.0 1027565
15:00+13ene545491 0.0 1027683
18:00+10ne466328 0.1 1028367
21:00+5nne12695 0.0 103131
7 october, fri
fri700:00+4wsw117340 0.0 103011
03:00+5ssw22875 0.0 102924
06:00+4ssw22855 0.1 102924
09:00+9sw23661 0.0 1027299
12:00+14n22500 0.0 10251063
15:00+16ne44434 0.0 10231440
18:00+12ene33570 0.0 102456
21:00+8ssw22690 0.0 102611
8 october, sat
sat800:00+8sw22710 0.0 102615
03:00+7sw32710 0.0 102521
06:00+7sw32731 0.0 102521
09:00+12sw22540 0.0 1024176
12:00+17w23340 0.0 10211405
15:00+19wsw33290 0.0 10181753
18:00+15ssw22390 0.0 101711
21:00+11ssw32492 0.0 101820